Find Starlink 37184

NORAD ID: 68393 Int'l Des: 2026-063 Owner: SPXS Country: US Constellation: starlink operational
LEOCIRCULARRETROGRADE

Live Position

Loading 3D Globe...

About Starlink 37184

Description loading...

Upcoming Passes

Passes for default location (London). Set your location on the main map for personalized predictions.

Altitude History

Loading altitude history...

Two-Line Element Set

1 68393U 26063P 26105.85732978 .00246767 00000-0 12465-2 0 9991
2 68393 97.2832 247.4900 0001806 49.8128 310.3298 15.80928969 3494
Epoch: Apr 15, 2026 • Age: 15 hours

Current Status

Altitude 329.7 km
Velocity 7.71 km/s
Sub-Earth Point -3.05°S, 132.38°W
Launch Date Mar 26, 2026
Age 20 days
Type internet

Technical Details

Classification Payload
Mass 575.00 kg
Dry Mass 530.00 kg
Total Mass 575.00 kg
Length 0.30 m
Diameter 4.10 m
Span 29.00 m
Shape Box + pan
Manufacturer SPXS
Bus Type Starlink V2MO
Phase Status In Orbit
Owner/State SPXS/US

Most Searched